| time (UTC) | temp C | wind direction | speed KPH | gust KPH | rain 1hr cm | rain 24hr cm | rain mn cm | humidity % | barometer mb |
| 20260508120802 | 12 | 195 | 1.6 | 8.0 | 0.00 | 0.00 | 0.00 | 68 | 1016.0 |
| 20260508120303 | 12 | 203 | 1.6 | 6.4 | 0.00 | 0.00 | 0.00 | 70 | 1016.0 |
| 20260508115305 | 12 | 201 | 1.6 | 14.5 | 0.00 | 0.00 | 0.00 | 73 | 1015.9 |
| 20260508114804 | 12 | 200 | 1.6 | 14.5 | 0.00 | 0.00 | 0.00 | 72 | 1015.9 |
| 20260508114301 | 11 | 196 | 1.6 | 8.0 | 0.00 | 0.00 | 0.00 | 71 | 1015.8 |
| 20260508113257 | 11 | 200 | 0.0 | 1.6 | 0.00 | 0.00 | 0.00 | 75 | 1015.7 |
| 20260508112804 | 11 | 200 | 0.0 | 1.6 | 0.00 | 0.00 | 0.00 | 75 | 1015.7 |
| 20260508111754 | 11 | 200 | 1.6 | 3.2 | 0.00 | 0.00 | 0.00 | 75 | 1015.5 |
| 20260508111254 | 10 | 200 | 0.0 | 3.2 | 0.00 | 0.00 | 0.00 | 76 | 1015.4 |
| 20260508110749 | 10 | 196 | 0.0 | 0.0 | 0.00 | 0.00 | 0.00 | 77 | 1015.3 |
| 20260508110248 | 10 | 196 | 0.0 | 0.0 | 0.00 | 0.00 | 0.00 | 77 | 1015.3 |
| 20260508104746 | 10 | 197 | 0.0 | 0.0 | 0.00 | 0.00 | 0.00 | 77 | 1015.0 |
| 20260508104247 | 10 | 197 | 0.0 | 0.0 | 0.00 | 0.00 | 0.00 | 77 | 1015.0 |
| 20260508103249 | 10 | 197 | 0.0 | 1.6 | 0.00 | 0.00 | 0.00 | 77 | 1014.8 |
| 20260508102248 | 10 | 197 | 0.0 | 1.6 | 0.00 | 0.00 | 0.00 | 77 | 1014.7 |
| 20260508101744 | 10 | 207 | 0.0 | 1.6 | 0.00 | 0.00 | 0.00 | 77 | 1014.6 |
| 20260508101245 | 10 | 207 | 0.0 | 1.6 | 0.00 | 0.00 | 0.00 | 77 | 1014.5 |
| 20260508100747 | 10 | 209 | 0.0 | 1.6 | 0.00 | 0.00 | 0.00 | 78 | 1014.3 |
| 20260508100249 | 10 | 209 | 0.0 | 1.6 | 0.00 | 0.00 | 0.00 | 78 | 1014.3 |
| 20260508095750 | 10 | 209 | 1.6 | 3.2 | 0.00 | 0.00 | 0.00 | 78 | 1014.3 |
| 20260508095245 | 10 | 209 | 1.6 | 3.2 | 0.00 | 0.00 | 0.00 | 79 | 1014.2 |
| 20260508094250 | 10 | 213 | 0.0 | 3.2 | 0.00 | 0.00 | 0.00 | 80 | 1013.9 |
| 20260508093750 | 10 | 213 | 0.0 | 4.8 | 0.00 | 0.00 | 0.00 | 80 | 1013.8 |
| 20260508093250 | 10 | 210 | 0.0 | 4.8 | 0.00 | 0.00 | 0.00 | 81 | 1013.7 |
| 20260508092747 | 10 | 209 | 1.6 | 3.2 | 0.00 | 0.00 | 0.00 | 82 | 1013.6 |
| 20260508092244 | 10 | 208 | 1.6 | 3.2 | 0.00 | 0.00 | 0.00 | 83 | 1013.6 |
| 20260508091745 | 10 | 208 | 1.6 | 3.2 | 0.00 | 0.00 | 0.00 | 84 | 1013.5 |
| 20260508091241 | 10 | 207 | 1.6 | 3.2 | 0.00 | 0.00 | 0.00 | 84 | 1013.5 |
| 20260508090743 | 10 | 207 | 1.6 | 3.2 | 0.00 | 0.00 | 0.00 | 85 | 1013.5 |
| 20260508090243 | 10 | 198 | 1.6 | 3.2 | 0.00 | 0.00 | 0.00 | 86 | 1013.4 |
| 20260508085239 | 10 | 177 | 0.0 | 1.6 | 0.00 | 0.00 | 0.00 | 87 | 1013.3 |
| 20260508084739 | 10 | 174 | 0.0 | 1.6 | 0.00 | 0.00 | 0.00 | 88 | 1013.1 |
| 20260508084241 | 10 | 175 | 0.0 | 1.6 | 0.00 | 0.00 | 0.00 | 88 | 1013.1 |
| 20260508083742 | 10 | 150 | 0.0 | 1.6 | 0.00 | 0.00 | 0.00 | 88 | 1013.1 |
| 20260508083241 | 10 | 148 | 0.0 | 3.2 | 0.00 | 0.00 | 0.00 | 89 | 1013.1 |
| 20260508082238 | 10 | 138 | 0.0 | 1.6 | 0.00 | 0.00 | 0.00 | 89 | 1012.9 |
| 20260508081236 | 10 | 135 | 0.0 | 4.8 | 0.00 | 0.00 | 0.00 | 89 | 1012.8 |
| 20260508080731 | 10 | 136 | 0.0 | 4.8 | 0.00 | 0.00 | 0.00 | 90 | 1012.8 |
| 20260508080232 | 10 | 137 | 0.0 | 4.8 | 0.00 | 0.00 | 0.00 | 90 | 1012.7 |
| 20260508075732 | 10 | 153 | 0.0 | 0.0 | 0.00 | 0.00 | 0.00 | 90 | 1012.7 |
| 20260508075225 | 10 | 153 | 0.0 | 3.2 | 0.00 | 0.00 | 0.00 | 90 | 1012.6 |
| 20260508074725 | 10 | 153 | 0.0 | 3.2 | 0.00 | 0.00 | 0.00 | 90 | 1012.6 |
| 20260508074221 | 10 | 157 | 1.6 | 1.6 | 0.00 | 0.00 | 0.00 | 91 | 1012.4 |
| 20260508073721 | 10 | 160 | 0.0 | 1.6 | 0.00 | 0.00 | 0.00 | 91 | 1012.2 |
| 20260508073218 | 10 | 160 | 0.0 | 6.4 | 0.00 | 0.00 | 0.00 | 91 | 1012.2 |
| 20260508072718 | 10 | 160 | 0.0 | 6.4 | 0.00 | 0.00 | 0.00 | 91 | 1012.0 |
| 20260508072218 | 10 | 164 | 0.0 | 1.6 | 0.00 | 0.00 | 0.00 | 91 | 1012.0 |
| 20260508071716 | 10 | 173 | 0.0 | 0.0 | 0.00 | 0.00 | 0.00 | 91 | 1012.1 |
| 20260508071213 | 10 | 173 | 0.0 | 0.0 | 0.00 | 0.00 | 0.00 | 91 | 1012.0 |
| 20260508070713 | 10 | 173 | 0.0 | 0.0 | 0.00 | 0.00 | 0.00 | 91 | 1011.9 |
| 20260508070213 | 9 | 173 | 0.0 | 0.0 | 0.00 | 0.00 | 0.00 | 91 | 1011.8 |
| 20260508065705 | 9 | 173 | 0.0 | 0.0 | 0.00 | 0.00 | 0.00 | 91 | 1011.7 |
| 20260508065206 | 9 | 173 | 0.0 | 0.0 | 0.00 | 0.00 | 0.00 | 91 | 1011.7 |
| 20260508064700 | 9 | 173 | 0.0 | 0.0 | 0.00 | 0.00 | 0.00 | 91 | 1011.8 |
| 20260508064207 | 9 | 173 | 0.0 | 0.0 | 0.00 | 0.00 | 0.00 | 91 | 1011.8 |
| 20260508063727 | 9 | 173 | 0.0 | 0.0 | 0.00 | 0.00 | 0.00 | 91 | 1011.9 |
| 20260508063207 | 9 | 173 | 0.0 | 0.0 | 0.00 | 0.00 | 0.00 | 91 | 1011.9 |
| 20260508062708 | 9 | 173 | 0.0 | 0.0 | 0.00 | 0.00 | 0.00 | 91 | 1011.8 |
| 20260508062205 | 9 | 173 | 0.0 | 0.0 | 0.00 | 0.00 | 0.00 | 91 | 1011.7 |
| 20260508061704 | 9 | 173 | 0.0 | 0.0 | 0.00 | 0.00 | 0.00 | 91 | 1011.8 |
| 20260508061153 | 9 | 173 | 0.0 | 1.6 | 0.00 | 0.00 | 0.00 | 91 | 1011.7 |
| 20260508060650 | 9 | 173 | 0.0 | 1.6 | 0.00 | 0.00 | 0.00 | 91 | 1011.7 |
| 20260508060147 | 9 | 174 | 0.0 | 1.6 | 0.00 | 0.00 | 0.00 | 91 | 1011.8 |
| 20260508055646 | 9 | 174 | 0.0 | 3.2 | 0.00 | 0.00 | 0.00 | 91 | 1011.7 |
| 20260508054648 | 9 | 178 | 0.0 | 1.6 | 0.00 | 0.00 | 0.00 | 91 | 1011.7 |
| 20260508054141 | 9 | 178 | 0.0 | 3.2 | 0.00 | 0.00 | 0.00 | 91 | 1011.7 |
| 20260508053647 | 9 | 178 | 0.0 | 3.2 | 0.00 | 0.00 | 0.00 | 91 | 1011.8 |
| 20260508052141 | 9 | 178 | 0.0 | 3.2 | 0.00 | 0.00 | 0.00 | 91 | 1011.8 |
| 20260508051639 | 9 | 181 | 0.0 | 1.6 | 0.00 | 0.00 | 0.00 | 92 | 1011.9 |
| 20260508051138 | 9 | 186 | 0.0 | 1.6 | 0.00 | 0.00 | 0.00 | 92 | 1011.9 |
| 20260508050636 | 9 | 188 | 0.0 | 0.0 | 0.00 | 0.00 | 0.00 | 92 | 1011.9 |
| 20260508050135 | 9 | 188 | 0.0 | 0.0 | 0.00 | 0.00 | 0.00 | 92 | 1011.8 |
| 20260508045637 | 9 | 188 | 0.0 | 0.0 | 0.00 | 0.00 | 0.00 | 93 | 1011.9 |
| 20260508045137 | 9 | 188 | 0.0 | 0.0 | 0.00 | 0.00 | 0.00 | 93 | 1011.9 |
| 20260508044635 | 9 | 188 | 0.0 | 0.0 | 0.00 | 0.00 | 0.00 | 94 | 1011.9 |
| 20260508044134 | 9 | 188 | 0.0 | 0.0 | 0.00 | 0.00 | 0.00 | 94 | 1011.9 |
| 20260508043129 | 9 | 188 | 0.0 | 0.0 | 0.00 | 0.00 | 0.00 | 94 | 1011.9 |
| 20260508042635 | 9 | 188 | 0.0 | 0.0 | 0.00 | 0.00 | 0.00 | 94 | 1011.8 |
| 20260508042129 | 9 | 188 | 0.0 | 0.0 | 0.00 | 0.00 | 0.00 | 94 | 1011.9 |
| 20260508041629 | 9 | 188 | 0.0 | 0.0 | 0.00 | 0.00 | 0.00 | 94 | 1011.8 |
| 20260508041138 | 9 | 188 | 0.0 | 0.0 | 0.00 | 0.00 | 0.00 | 94 | 1011.7 |
| 20260508040629 | 10 | 188 | 0.0 | 0.0 | 0.00 | 0.00 | 0.00 | 94 | 1011.7 |
| 20260508040136 | 10 | 188 | 0.0 | 0.0 | 0.00 | 0.00 | 0.00 | 94 | 1011.6 |
| 20260508035136 | 10 | 188 | 0.0 | 0.0 | 0.00 | 0.00 | 0.00 | 94 | 1011.6 |
| 20260508034630 | 10 | 188 | 0.0 | 0.0 | 0.00 | 0.00 | 0.00 | 94 | 1011.6 |
| 20260508033637 | 10 | 188 | 0.0 | 0.0 | 0.00 | 0.00 | 0.00 | 94 | 1011.4 |
| 20260508032635 | 10 | 188 | 0.0 | 0.0 | 0.00 | 0.00 | 0.00 | 94 | 1011.5 |
| 20260508032129 | 10 | 188 | 0.0 | 0.0 | 0.00 | 0.00 | 0.00 | 94 | 1011.4 |
| 20260508031630 | 10 | 188 | 0.0 | 0.0 | 0.00 | 0.00 | 0.00 | 94 | 1011.6 |
| 20260508031131 | 10 | 188 | 0.0 | 0.0 | 0.00 | 0.00 | 0.00 | 94 | 1011.6 |
| 20260508030632 | 10 | 188 | 0.0 | 0.0 | 0.00 | 0.00 | 0.00 | 94 | 1011.6 |
| 20260508025629 | 10 | 188 | 0.0 | 0.0 | 0.00 | 0.00 | 0.00 | 94 | 1011.6 |
| 20260508025132 | 10 | 188 | 0.0 | 0.0 | 0.00 | 0.00 | 0.00 | 93 | 1011.6 |
| 20260508024129 | 10 | 188 | 0.0 | 0.0 | 0.00 | 0.00 | 0.00 | 93 | 1011.7 |
| 20260508023129 | 10 | 188 | 0.0 | 0.0 | 0.00 | 0.00 | 0.00 | 93 | 1011.6 |
| 20260508022622 | 11 | 188 | 0.0 | 0.0 | 0.00 | 0.00 | 0.00 | 93 | 1011.6 |
| 20260508022129 | 11 | 188 | 0.0 | 0.0 | 0.00 | 0.00 | 0.00 | 93 | 1011.6 |
| 20260508021627 | 11 | 188 | 0.0 | 0.0 | 0.00 | 0.00 | 0.00 | 93 | 1011.5 |
| 20260508015627 | 11 | 188 | 0.0 | 0.0 | 0.00 | 0.00 | 0.00 | 92 | 1011.4 |
| 20260508015124 | 11 | 188 | 0.0 | 0.0 | 0.00 | 0.00 | 0.00 | 92 | 1011.4 |
| 20260508014628 | 11 | 188 | 0.0 | 0.0 | 0.00 | 0.00 | 0.00 | 92 | 1011.4 |
| 20260508014121 | 11 | 188 | 0.0 | 0.0 | 0.00 | 0.00 | 0.00 | 92 | 1011.4 |
| 20260508013622 | 11 | 188 | 0.0 | 0.0 | 0.00 | 0.00 | 0.00 | 92 | 1011.4 |
| 20260508013119 | 11 | 188 | 0.0 | 0.0 | 0.00 | 0.00 | 0.00 | 92 | 1011.4 |
| 20260508012120 | 11 | 188 | 0.0 | 0.0 | 0.00 | 0.00 | 0.00 | 92 | 1011.2 |
| 20260508011623 | 11 | 188 | 0.0 | 3.2 | 0.00 | 0.00 | 0.00 | 92 | 1011.3 |
| 20260508011119 | 11 | 188 | 0.0 | 3.2 | 0.00 | 0.00 | 0.00 | 91 | 1011.3 |
| 20260508005623 | 11 | 188 | 0.0 | 1.6 | 0.00 | 0.00 | 0.00 | 91 | 1010.9 |
| 20260508004616 | 11 | 188 | 0.0 | 0.0 | 0.00 | 0.00 | 0.00 | 91 | 1010.7 |
| 20260508004137 | 11 | 188 | 0.0 | 1.6 | 0.00 | 0.00 | 0.00 | 91 | 1010.8 |
| 20260508003615 | 11 | 188 | 0.0 | 1.6 | 0.00 | 0.00 | 0.00 | 91 | 1010.7 |
| 20260508002616 | 11 | 188 | 0.0 | 0.0 | 0.00 | 0.00 | 0.00 | 91 | 1010.5 |
| 20260508002109 | 11 | 188 | 0.0 | 0.0 | 0.00 | 0.00 | 0.00 | 90 | 1010.4 |
| 20260508001612 | 11 | 188 | 0.0 | 0.0 | 0.00 | 0.00 | 0.00 | 90 | 1010.3 |
| 20260508001110 | 11 | 188 | 0.0 | 0.0 | 0.00 | 0.00 | 0.00 | 90 | 1010.2 |
| 20260508000609 | 11 | 188 | 0.0 | 0.0 | 0.00 | 0.00 | 0.00 | 90 | 1010.3 |
| 20260508000105 | 11 | 188 | 0.0 | 0.0 | 0.00 | 0.00 | 0.00 | 90 | 1010.2 |
| 20260507235603 | 11 | 188 | 0.0 | 0.0 | 0.00 | 0.00 | 0.00 | 90 | 1010.1 |
| 20260507235105 | 11 | 188 | 0.0 | 0.0 | 0.00 | 0.00 | 0.00 | 89 | 1010.3 |
| 20260507234605 | 11 | 188 | 0.0 | 0.0 | 0.00 | 0.00 | 0.00 | 89 | 1010.1 |
| 20260507233604 | 11 | 188 | 0.0 | 0.0 | 0.00 | 0.00 | 0.00 | 88 | 1010.2 |
| 20260507232612 | 11 | 188 | 0.0 | 0.0 | 0.00 | 0.00 | 0.00 | 86 | 1010.0 |
| 20260507231047 | 11 | 188 | 0.0 | 0.0 | 0.00 | 0.00 | 0.00 | 86 | 1010.2 |
| 20260507230548 | 11 | 188 | 0.0 | 0.0 | 0.00 | 0.00 | 0.00 | 86 | 1010.3 |
| 20260507230043 | 11 | 188 | 0.0 | 0.0 | 0.00 | 0.00 | 0.00 | 87 | 1010.4 |
| 20260507225542 | 11 | 188 | 0.0 | 0.0 | 0.00 | 0.00 | 0.00 | 86 | 1010.1 |
| 20260507225041 | 11 | 188 | 0.0 | 1.6 | 0.00 | 0.00 | 0.00 | 85 | 1010.1 |
| 20260507224538 | 11 | 188 | 0.0 | 1.6 | 0.00 | 0.00 | 0.00 | 85 | 1010.1 |
| 20260507224039 | 11 | 188 | 0.0 | 1.6 | 0.00 | 0.00 | 0.00 | 86 | 1010.3 |
| 20260507223539 | 11 | 188 | 0.0 | 1.6 | 0.00 | 0.00 | 0.00 | 86 | 1010.4 |
| 20260507223041 | 11 | 188 | 0.0 | 0.0 | 0.00 | 0.00 | 0.00 | 88 | 1010.5 |
| 20260507222541 | 11 | 188 | 0.0 | 0.0 | 0.00 | 0.00 | 0.00 | 88 | 1010.7 |
| 20260507221541 | 11 | 188 | 0.0 | 0.0 | 0.00 | 0.00 | 0.00 | 89 | 1010.5 |
| 20260507221036 | 11 | 188 | 0.0 | 0.0 | 0.00 | 0.00 | 0.00 | 89 | 1010.1 |
| 20260507220537 | 12 | 188 | 0.0 | 1.6 | 0.00 | 0.00 | 0.00 | 90 | 1010.2 |
| 20260507215535 | 11 | 188 | 0.0 | 0.0 | 0.00 | 0.00 | 0.00 | 90 | 1010.1 |
| 20260507214536 | 12 | 188 | 0.0 | 1.6 | 0.00 | 0.00 | 0.00 | 90 | 1010.4 |
| 20260507214031 | 12 | 189 | 0.0 | 0.0 | 0.00 | 0.00 | 0.00 | 90 | 1010.8 |
| 20260507213530 | 12 | 188 | 0.0 | 0.0 | 0.00 | 0.00 | 0.00 | 90 | 1010.5 |
| 20260507213035 | 12 | 188 | 0.0 | 0.0 | 0.00 | 0.00 | 0.00 | 90 | 1010.6 |
| 20260507212530 | 12 | 188 | 0.0 | 0.0 | 0.00 | 0.00 | 0.00 | 89 | 1010.5 |
| 20260507212034 | 12 | 188 | 0.0 | 0.0 | 0.00 | 0.00 | 0.00 | 88 | 1010.0 |
| 20260507211536 | 12 | 188 | 0.0 | 0.0 | 0.00 | 0.00 | 0.00 | 86 | 1010.1 |
| 20260507210533 | 12 | 188 | 0.0 | 0.0 | 0.00 | 0.00 | 0.00 | 85 | 1010.7 |
| 20260507205532 | 12 | 188 | 0.0 | 1.6 | 0.00 | 0.00 | 0.00 | 82 | 1010.4 |
| 20260507205033 | 12 | 188 | 0.0 | 1.6 | 0.00 | 0.00 | 0.00 | 81 | 1010.2 |
| 20260507204035 | 12 | 188 | 0.0 | 3.2 | 0.00 | 0.00 | 0.00 | 82 | 1010.5 |
| 20260507203531 | 12 | 195 | 0.0 | 1.6 | 0.00 | 0.00 | 0.00 | 80 | 1010.4 |
| 20260507203032 | 12 | 195 | 0.0 | 0.0 | 0.00 | 0.00 | 0.00 | 81 | 1010.3 |
| 20260507202538 | 12 | 195 | 0.0 | 0.0 | 0.00 | 0.00 | 0.00 | 79 | 1009.9 |
| 20260507202032 | 12 | 195 | 0.0 | 0.0 | 0.00 | 0.00 | 0.00 | 79 | 1009.8 |
| 20260507201530 | 12 | 195 | 0.0 | 0.0 | 0.00 | 0.00 | 0.00 | 78 | 1010.1 |
| 20260507201036 | 12 | 195 | 0.0 | 1.6 | 0.00 | 0.00 | 0.00 | 76 | 1010.1 |
| 20260507200532 | 12 | 195 | 0.0 | 1.6 | 0.00 | 0.00 | 0.00 | 74 | 1010.1 |
| 20260507200029 | 12 | 195 | 1.6 | 1.6 | 0.00 | 0.00 | 0.00 | 74 | 1009.9 |
| 20260507195532 | 13 | 195 | 1.6 | 1.6 | 0.00 | 0.00 | 0.00 | 74 | 1009.7 |
| 20260507195029 | 13 | 195 | 0.0 | 1.6 | 0.00 | 0.00 | 0.00 | 74 | 1009.8 |
| 20260507194531 | 13 | 195 | 0.0 | 1.6 | 0.00 | 0.00 | 0.00 | 74 | 1009.8 |
| 20260507194031 | 13 | 194 | 0.0 | 3.2 | 0.00 | 0.00 | 0.00 | 75 | 1009.9 |
| 20260507193530 | 13 | 194 | 0.0 | 3.2 | 0.00 | 0.00 | 0.00 | 75 | 1010.1 |
| 20260507193033 | 13 | 193 | 0.0 | 1.6 | 0.00 | 0.00 | 0.00 | 76 | 1010.2 |
| 20260507192531 | 13 | 194 | 1.6 | 1.6 | 0.00 | 0.00 | 0.00 | 73 | 1010.5 |
| 20260507192033 | 13 | 194 | 0.0 | 1.6 | 0.00 | 0.00 | 0.00 | 70 | 1010.1 |
| 20260507191528 | 13 | 194 | 0.0 | 1.6 | 0.00 | 0.00 | 0.00 | 69 | 1010.0 |
| 20260507191031 | 13 | 194 | 0.0 | 1.6 | 0.00 | 0.00 | 0.00 | 71 | 1010.1 |
| 20260507190529 | 13 | 198 | 0.0 | 1.6 | 0.00 | 0.00 | 0.00 | 76 | 1010.2 |
| 20260507185530 | 13 | 198 | 0.0 | 1.6 | 0.00 | 0.00 | 0.00 | 74 | 1010.7 |
| 20260507185039 | 13 | 198 | 0.0 | 1.6 | 0.00 | 0.00 | 0.00 | 73 | 1011.0 |
| 20260507184531 | 13 | 198 | 1.6 | 1.6 | 0.00 | 0.00 | 0.00 | 74 | 1011.2 |
| 20260507184032 | 13 | 198 | 0.0 | 1.6 | 0.00 | 0.00 | 0.00 | 76 | 1011.1 |
| 20260507183019 | 13 | 198 | 1.6 | 3.2 | 0.00 | 0.00 | 0.00 | 77 | 1011.2 |
| 20260507182513 | 13 | 197 | 0.0 | 1.6 | 0.00 | 0.00 | 0.00 | 77 | 1011.2 |
| 20260507182013 | 13 | 201 | 0.0 | 3.2 | 0.00 | 0.00 | 0.00 | 79 | 1011.2 |
| 20260507181511 | 13 | 201 | 0.0 | 3.2 | 0.00 | 0.00 | 0.00 | 78 | 1010.9 |
| 20260507181008 | 13 | 198 | 0.0 | 3.2 | 0.00 | 0.00 | 0.00 | 78 | 1010.8 |
| 20260507180510 | 13 | 198 | 1.6 | 3.2 | 0.00 | 0.00 | 0.00 | 78 | 1010.9 |
| 20260507180010 | 13 | 197 | 1.6 | 1.6 | 0.00 | 0.00 | 0.00 | 77 | 1011.0 |
| 20260507175509 | 13 | 196 | 1.6 | 3.2 | 0.00 | 0.00 | 0.00 | 78 | 1011.0 |
| 20260507175014 | 13 | 195 | 1.6 | 3.2 | 0.00 | 0.00 | 0.00 | 76 | 1011.2 |
| 20260507174505 | 13 | 195 | 1.6 | 3.2 | 0.00 | 0.00 | 0.00 | 77 | 1011.2 |
| 20260507174013 | 13 | 200 | 1.6 | 3.2 | 0.00 | 0.00 | 0.00 | 77 | 1011.0 |
| 20260507172010 | 13 | 184 | 1.6 | 6.4 | 0.00 | 0.00 | 0.00 | 77 | 1011.5 |
| 20260507171009 | 13 | 198 | 1.6 | 4.8 | 0.00 | 0.00 | 0.00 | 77 | 1011.5 |
| 20260507170509 | 13 | 196 | 1.6 | 1.6 | 0.00 | 0.00 | 0.00 | 79 | 1011.8 |
| 20260507170006 | 13 | 198 | 1.6 | 3.2 | 0.00 | 0.00 | 0.00 | 79 | 1011.9 |
| 20260507165003 | 13 | 194 | 1.6 | 3.2 | 0.00 | 0.00 | 0.00 | 78 | 1011.9 |
| 20260507164510 | 13 | 196 | 1.6 | 3.2 | 0.00 | 0.00 | 0.00 | 77 | 1012.1 |
| 20260507164003 | 13 | 193 | 1.6 | 8.0 | 0.00 | 0.00 | 0.00 | 78 | 1011.9 |
| 20260507163007 | 13 | 197 | 1.6 | 8.0 | 0.00 | 0.00 | 0.00 | 76 | 1012.0 |
| 20260507162503 | 13 | 210 | 1.6 | 8.0 | 0.00 | 0.00 | 0.00 | 76 | 1012.1 |
| 20260507162006 | 13 | 200 | 0.0 | 6.4 | 0.00 | 0.00 | 0.00 | 78 | 1012.1 |
| 20260507161503 | 13 | 197 | 1.6 | 4.8 | 0.00 | 0.00 | 0.00 | 79 | 1012.4 |
| 20260507160501 | 13 | 198 | 1.6 | 6.4 | 0.00 | 0.00 | 0.00 | 77 | 1012.4 |
| 20260507155504 | 13 | 202 | 1.6 | 6.4 | 0.00 | 0.00 | 0.00 | 80 | 1012.4 |
| 20260507155004 | 13 | 201 | 1.6 | 4.8 | 0.00 | 0.00 | 0.00 | 80 | 1012.6 |
| 20260507154510 | 13 | 192 | 1.6 | 8.0 | 0.00 | 0.00 | 0.00 | 80 | 1012.6 |
| 20260507153505 | 13 | 174 | 1.6 | 4.8 | 0.00 | 0.00 | 0.00 | 79 | 1012.8 |
| 20260507152502 | 13 | 207 | 1.6 | 8.0 | 0.00 | 0.00 | 0.00 | 79 | 1012.8 |
| 20260507152003 | 13 | 197 | 1.6 | 8.0 | 0.00 | 0.00 | 0.00 | 80 | 1012.8 |
| 20260507151004 | 13 | 213 | 1.6 | 8.0 | 0.00 | 0.00 | 0.00 | 80 | 1012.6 |
| 20260507150502 | 13 | 195 | 1.6 | 8.0 | 0.00 | 0.00 | 0.00 | 81 | 1012.6 |
| 20260507150001 | 13 | 193 | 1.6 | 8.0 | 0.00 | 0.00 | 0.00 | 81 | 1012.6 |
| 20260507145505 | 13 | 200 | 3.2 | 8.0 | 0.00 | 0.00 | 0.00 | 81 | 1012.7 |
| 20260507145006 | 13 | 196 | 3.2 | 6.4 | 0.00 | 0.00 | 0.00 | 80 | 1012.9 |
| 20260507144501 | 13 | 194 | 1.6 | 8.0 | 0.00 | 0.00 | 0.00 | 79 | 1012.8 |
| 20260507144003 | 13 | 181 | 1.6 | 8.0 | 0.00 | 0.00 | 0.00 | 80 | 1013.0 |
| 20260507143007 | 13 | 192 | 0.0 | 3.2 | 0.00 | 0.00 | 0.00 | 80 | 1012.8 |
| 20260507142504 | 13 | 194 | 1.6 | 4.8 | 0.00 | 0.00 | 0.00 | 82 | 1012.9 |
| 20260507142003 | 13 | 198 | 1.6 | 4.8 | 0.00 | 0.00 | 0.00 | 81 | 1012.9 |
| 20260507141531 | 13 | 201 | 1.6 | 4.8 | 0.00 | 0.00 | 0.00 | 82 | 1013.0 |
| 20260507140504 | 13 | 213 | 1.6 | 9.7 | 0.00 | 0.00 | 0.00 | 81 | 1012.8 |
| 20260507140008 | 13 | 196 | 1.6 | 9.7 | 0.00 | 0.00 | 0.00 | 80 | 1013.0 |
| 20260507135503 | 13 | 248 | 1.6 | 3.2 | 0.00 | 0.00 | 0.00 | 80 | 1012.9 |
| 20260507135009 | 13 | 209 | 0.0 | 3.2 | 0.00 | 0.00 | 0.00 | 81 | 1012.9 |
| 20260507133957 | 13 | 204 | 1.6 | 4.8 | 0.00 | 0.00 | 0.00 | 80 | 1012.9 |
| 20260507133453 | 13 | 161 | 0.0 | 4.8 | 0.00 | 0.00 | 0.00 | 80 | 1013.0 |
| 20260507132942 | 12 | 216 | 1.6 | 4.8 | 0.00 | 0.00 | 0.00 | 81 | 1013.0 |
| 20260507131504 | 12 | 196 | 1.6 | 4.8 | 0.00 | 0.00 | 0.00 | 80 | 1012.8 |
| 20260507130938 | 12 | 198 | 1.6 | 4.8 | 0.00 | 0.00 | 0.00 | 80 | 1012.5 |
| 20260507130437 | 12 | 201 | 0.0 | 4.8 | 0.00 | 0.00 | 0.00 | 81 | 1012.7 |
| 20260507125939 | 12 | 188 | 0.0 | 4.8 | 0.00 | 0.00 | 0.00 | 81 | 1012.7 |
| 20260507125437 | 12 | 192 | 0.0 | 4.8 | 0.00 | 0.00 | 0.00 | 81 | 1012.7 |
| 20260507124932 | 12 | 213 | 1.6 | 6.4 | 0.00 | 0.00 | 0.00 | 81 | 1012.7 |
| 20260507124434 | 12 | 200 | 1.6 | 6.4 | 0.00 | 0.00 | 0.00 | 81 | 1012.7 |
| 20260507123931 | 12 | 200 | 1.6 | 3.2 | 0.00 | 0.00 | 0.00 | 82 | 1012.7 |
| 20260507122934 | 12 | 194 | 1.6 | 4.8 | 0.00 | 0.00 | 0.00 | 82 | 1012.5 |
| 20260507122432 | 12 | 197 | 1.6 | 4.8 | 0.00 | 0.00 | 0.00 | 82 | 1012.6 |
| 20260507121940 | 12 | 195 | 0.0 | 3.2 | 0.00 | 0.00 | 0.00 | 83 | 1012.6 |